Location: Follega
(52.8850°N, 5.7362°E)
Time: 11:01:16
(UTC+00:00)

CARTOSAT-1 - Pass Details

Date: 02 October 2020
Orbit: 616 x 619 km, 97.8° (Epoch: 20 October)

Event Time Altitude Azimuth Distance (km) Brightness Sun altitude
Exits shadow 19:33:40 15° 36° (NE) 1,664 5.6 -21.9°
Drops below altitude 10° 19:35:14 10° 16° (NNE) 1,994 6.2 -22.1°
Sets 19:38:02 0° 357° (N) 2,904 7.4 -22.5°
